Wheaton NDB, MN

8:22 PM CST on November 21, 2017 (GMT -0600)
Wheaton Municipal

Weather History for KETH - February, 2014

Change the Weather History Date:

Saturday, February 1, 2014

  Actual Average Record
Temperature  
Mean Temperature 8 °F -  
Max Temperature 15 °F 20 °F 50 °F (1991)
Min Temperature 0 °F 2 °F -22 °F (1951)
Degree Days  
Heating Degree Days 58    
Moisture  
Dew Point 3 °F    
Average Humidity 78    
Maximum Humidity 86    
Minimum Humidity 67    
Precipitation  
Precipitation 0.00 in - - ()
Sea Level Pressure  
Sea Level Pressure 30.04 in    
Wind  
Wind Speed 11 mph (WNW)    
Max Wind Speed 21 mph    
Max Gust Speed 26 mph    
Visibility 10 miles    
Events Snow    
Averages and records for this station are not official NWS values.
T = Trace of Precipitation, MM = Missing Value Source: NWS Daily Summary

Daily Weather History Graph

Daily Weather History Graph

Search for Another Location

Airport or City:

Trip Planner

Search our weather history database for the weather conditions in past years. The results will help you decide how hot, cold, wet, or windy it might be!

Date:

Astronomy

Feb. 01, 2014 Rise Set
Actual Time 7:47 AM CST 5:32 PM CST
Civil Twilight 7:16 AM CST 6:04 PM CST
Nautical Twilight 6:40 AM CST 6:39 PM CST
Astronomical Twilight 6:05 AM CST 7:14 PM CST
Moon 8:29 AM CST (2/1) 8:19 PM CST (2/1)
Length of Visible Light 10h 47m
Length of Day
9h 44m
Waxing Crescent, 5% of the Moon is Illuminated
Feb 1
Waxing Crescent
Feb 6
First Quarter
Feb 14
Full
Feb 22
Last Quarter
Mar 1
New

Hourly Weather History & Observations

Time (CST) Temp. Windchill Dew Point Humidity Pressure Visibility Wind Dir Wind Speed Gust Speed Precip Events Conditions
12:14 AM 15.8 °F 2.7 °F 10.4 °F 79% 29.83 in 10.0 mi SSE 11.5 mph - N/A   Overcast
12:34 AM 15.8 °F 3.4 °F 10.4 °F 79% 29.83 in 10.0 mi SSE 10.4 mph - N/A   Overcast
12:54 AM 15.8 °F 3.4 °F 10.4 °F 79% 29.83 in 10.0 mi SSE 10.4 mph - N/A   Overcast
1:14 AM 15.8 °F 6.1 °F 10.4 °F 79% 29.83 in 10.0 mi SSE 6.9 mph - N/A   Overcast
1:34 AM 15.8 °F 6.1 °F 10.4 °F 79% 29.83 in 10.0 mi SSE 6.9 mph - N/A   Scattered Clouds
1:54 AM 15.8 °F 6.1 °F 10.4 °F 79% 29.82 in 10.0 mi SSE 6.9 mph - N/A   Scattered Clouds
2:14 AM 14.0 °F 2.9 °F 8.6 °F 79% 29.82 in 10.0 mi South 8.1 mph - N/A   Scattered Clouds
2:34 AM 12.2 °F 1.7 °F 8.6 °F 85% 29.83 in 10.0 mi South 6.9 mph - N/A   Clear
2:55 AM 12.2 °F 4.3 °F 8.6 °F 85% 29.83 in 10.0 mi South 4.6 mph - N/A   Clear
3:14 AM 10.4 °F - 5.0 °F 79% 29.84 in 10.0 mi Calm Calm - N/A   Clear
3:34 AM 10.4 °F 4.0 °F 6.8 °F 85% 29.85 in 10.0 mi WSW 3.5 mph - N/A   Clear
3:54 AM 14.0 °F 5.1 °F 10.4 °F 86% 29.85 in 10.0 mi WSW 5.8 mph - N/A   Clear
4:14 AM 12.2 °F 0.7 °F 8.6 °F 85% 29.86 in 10.0 mi West 8.1 mph - N/A   Clear
4:34 AM 12.2 °F 0.7 °F 8.6 °F 85% 29.87 in 10.0 mi WNW 8.1 mph - N/A   Clear
4:54 AM 12.2 °F -2.5 °F 8.6 °F 85% 29.88 in 10.0 mi WNW 12.7 mph - N/A   Clear
5:14 AM 12.2 °F -2.5 °F 8.6 °F 85% 29.90 in 10.0 mi WNW 12.7 mph - N/A   Mostly Cloudy
5:34 AM 12.2 °F -3.7 °F 8.6 °F 85% 29.91 in 10.0 mi WNW 15.0 mph - N/A   Mostly Cloudy
5:54 AM 12.2 °F -4.3 °F 6.8 °F 79% 29.91 in 10.0 mi WNW 16.1 mph 21.9 mph N/A   Scattered Clouds
6:14 AM 10.4 °F -4.1 °F 6.8 °F 85% 29.93 in 10.0 mi WNW 11.5 mph - N/A   Mostly Cloudy
6:34 AM 12.2 °F -5.3 °F 6.8 °F 79% 29.93 in 10.0 mi WNW 18.4 mph 26.5 mph N/A   Overcast
6:54 AM 12.2 °F -4.8 °F 6.8 °F 79% 29.95 in 10.0 mi WNW 17.3 mph 23.0 mph N/A   Overcast
7:14 AM 12.2 °F -4.8 °F 6.8 °F 79% 29.96 in 10.0 mi WNW 17.3 mph 25.3 mph N/A   Overcast
7:35 AM 10.4 °F -7.2 °F 6.8 °F 85% 29.97 in 10.0 mi WNW 17.3 mph 24.2 mph N/A   Mostly Cloudy
7:54 AM 10.4 °F -6.0 °F 5.0 °F 79% 29.98 in 10.0 mi WNW 15.0 mph 19.6 mph N/A   Clear
8:14 AM 8.6 °F -7.7 °F 3.2 °F 79% 29.99 in 10.0 mi WNW 13.8 mph - N/A   Clear
8:34 AM 10.4 °F -4.8 °F 5.0 °F 79% 30.00 in 10.0 mi WNW 12.7 mph - N/A   Clear
8:54 AM 10.4 °F -6.6 °F 6.8 °F 85% 30.01 in 10.0 mi NW 16.1 mph 19.6 mph N/A   Mostly Cloudy
9:14 AM 10.4 °F -7.7 °F 5.0 °F 79% 30.03 in 10.0 mi NW 18.4 mph 25.3 mph N/A   Overcast
9:34 AM 10.4 °F -7.2 °F 5.0 °F 79% 30.04 in 10.0 mi NNW 17.3 mph 25.3 mph N/A   Overcast
9:54 AM 10.4 °F -8.6 °F 5.0 °F 79% 30.05 in 10.0 mi NNW 20.7 mph 25.3 mph N/A Snow Light Snow
10:14 AM 8.6 °F -8.9 °F 3.2 °F 79% 30.07 in 10.0 mi NNW 16.1 mph 25.3 mph N/A Snow Light Snow
10:34 AM 8.6 °F -9.5 °F 3.2 °F 79% 30.08 in 10.0 mi NNW 17.3 mph 21.9 mph N/A   Overcast
10:54 AM 8.6 °F -11.0 °F 3.2 °F 79% 30.09 in 10.0 mi NNW 20.7 mph 24.2 mph N/A   Mostly Cloudy
11:14 AM 8.6 °F -9.5 °F 3.2 °F 79% 30.10 in 10.0 mi NNW 17.3 mph 26.5 mph N/A   Clear
11:35 AM 10.4 °F -7.7 °F 1.4 °F 67% 30.11 in 10.0 mi NNW 18.4 mph 21.9 mph N/A   Scattered Clouds
11:54 AM 8.6 °F -8.9 °F 3.2 °F 79% 30.11 in 10.0 mi NNW 16.1 mph - N/A   Mostly Cloudy
12:14 PM 8.6 °F -7.7 °F 3.2 °F 79% 30.12 in 10.0 mi NNW 13.8 mph - N/A   Overcast
12:34 PM 8.6 °F -7.0 °F 1.4 °F 73% 30.12 in 10.0 mi NNW 12.7 mph - N/A   Overcast
12:54 PM 8.6 °F -8.9 °F 3.2 °F 79% 30.13 in 10.0 mi NNW 16.1 mph - N/A   Scattered Clouds
1:14 PM 8.6 °F -7.7 °F 3.2 °F 79% 30.13 in 10.0 mi NNW 13.8 mph 17.3 mph N/A   Scattered Clouds
1:34 PM 8.6 °F -7.0 °F 1.4 °F 73% 30.14 in 10.0 mi NW 12.7 mph 17.3 mph N/A   Mostly Cloudy
1:54 PM 8.6 °F -8.9 °F -0.4 °F 67% 30.14 in 10.0 mi WNW 16.1 mph 21.9 mph N/A   Scattered Clouds
2:14 PM 8.6 °F -7.7 °F -0.4 °F 67% 30.14 in 10.0 mi NW 13.8 mph - N/A   Clear
2:34 PM 8.6 °F -8.9 °F -0.4 °F 67% 30.15 in 10.0 mi NW 16.1 mph 19.6 mph N/A   Clear
2:54 PM 8.6 °F -7.7 °F 1.4 °F 73% 30.15 in 10.0 mi NW 13.8 mph 19.6 mph N/A   Clear
3:14 PM 8.6 °F -7.7 °F -0.4 °F 67% 30.15 in 10.0 mi NW 13.8 mph 20.7 mph N/A   Clear
3:34 PM 8.6 °F -7.0 °F -0.4 °F 67% 30.16 in 10.0 mi NW 12.7 mph - N/A   Clear
3:54 PM 8.6 °F -7.0 °F -0.4 °F 67% 30.17 in 10.0 mi NW 12.7 mph - N/A   Clear
4:14 PM 8.6 °F -6.3 °F -0.4 °F 67% 30.18 in 10.0 mi NW 11.5 mph - N/A   Clear
4:34 PM 8.6 °F -6.3 °F -0.4 °F 67% 30.18 in 10.0 mi NW 11.5 mph - N/A   Clear
4:54 PM 8.6 °F -4.7 °F -0.4 °F 67% 30.18 in 10.0 mi NW 9.2 mph - N/A   Clear
5:14 PM 6.8 °F -3.5 °F -0.4 °F 72% 30.19 in 10.0 mi NW 5.8 mph - N/A   Clear
5:34 PM 6.8 °F -2.0 °F -0.4 °F 72% 30.20 in 10.0 mi NW 4.6 mph - N/A   Clear
5:54 PM 5.0 °F - -2.2 °F 72% 30.20 in 10.0 mi Calm Calm - N/A   Clear
6:14 PM 3.2 °F -6.2 °F -2.2 °F 78% 30.21 in 10.0 mi WNW 4.6 mph - N/A   Clear
6:34 PM 3.2 °F -7.8 °F -2.2 °F 78% 30.21 in 10.0 mi West 5.8 mph - N/A   Clear
9:42 PM 1.4 °F -8.3 °F -2.2 °F 85% 30.23 in 10.0 mi West 4.6 mph - N/A   Clear
10:12 PM -0.4 °F -8.3 °F -4.0 °F 85% 30.24 in 10.0 mi West 3.5 mph - N/A   Clear
10:14 PM -0.4 °F -8.3 °F -4.0 °F 85% 30.23 in 10.0 mi West 3.5 mph - N/A   Clear
10:41 PM 1.4 °F -9.9 °F -2.2 °F 85% 30.23 in 10.0 mi SW 5.8 mph - N/A   Clear
10:54 PM -0.4 °F -10.4 °F -4.0 °F 85% 30.23 in 10.0 mi SW 4.6 mph - N/A   Scattered Clouds
11:14 PM -0.4 °F -12.0 °F -4.0 °F 85% 30.23 in 10.0 mi SSW 5.8 mph - N/A   Overcast
11:34 PM 1.4 °F -9.9 °F -2.2 °F 85% 30.23 in 10.0 mi SW 5.8 mph - N/A   Overcast
11:54 PM 1.4 °F -6.2 °F -4.0 °F 78% 30.23 in 10.0 mi SSW 3.5 mph - N/A   Overcast